Waarnemingen

Advertentie
Mijn weer
Andrewsfield, Groot Brittannië (3684): temperatuur & dauwpunt: 15.01.2021 11:00:00 - 21.01.2021 11:00:00 (GMT)Andrewsfield, Groot Brittannië (3684): temperatuur -20cm & temperatuur -100cm: 15.01.2021 11:00:00 - 21.01.2021 11:00:00 (GMT)Andrewsfield, Groot Brittannië (3684): windsnelheid & windstoten: 15.01.2021 11:00:00 - 21.01.2021 11:00:00 (GMT)Andrewsfield, Groot Brittannië (3684): windrichting: 15.01.2021 11:00:00 - 21.01.2021 11:00:00 (GMT)Andrewsfield, Groot Brittannië (3684): luchtdruk: 15.01.2021 11:00:00 - 21.01.2021 11:00:00 (GMT)Andrewsfield, Groot Brittannië (3684): zicht: 15.01.2021 11:00:00 - 21.01.2021 11:00:00 (GMT)Andrewsfield, Groot Brittannië (3684): neerslag: 15.01.2021 11:00:00 - 21.01.2021 11:00:00 (GMT)
Datum & Tijd tt [°C] td [°C] tt -20cm [°C] tt -100cm [°C] ff [km/u] ff [kn] fx [km/u] fx [kn] dd ppp [hPa] vv [km] rr [mm]
21.01.2021 11:00:00 6,8 2,3 - - 41 22 65 35 WZW 985,4 70 0,0
21.01.2021 10:00:00 5,9 1,9 - - 41 22 67 36 WZW 985,1 70 0,0
21.01.2021 09:00:00 4,8 1,7 6,0 6,5 34 18 54 29 ZW 985,0 60 0,0
21.01.2021 08:00:00 4,5 1,5 - - 39 21 54 29 ZW 984,6 70 0,0
21.01.2021 07:00:00 3,7 1,2 - - 34 18 48 26 ZW 984,4 75 0,0
21.01.2021 06:00:00 3,5 1,4 - - 34 18 50 27 ZW 984,1 65 0,0
21.01.2021 05:00:00 3,2 0,1 - - 34 18 52 28 WZW 983,4 75 0,0
21.01.2021 04:00:00 3,6 0,9 - - 39 21 63 34 WZW 982,0 75 0,0
21.01.2021 03:00:00 4,2 2,1 - - 42 23 61 33 WZW 980,1 75 0,6
21.01.2021 02:00:00 3,2 2,2 - - 41 22 76 41 W 978,0 5 0,6
21.01.2021 01:00:00 6,5 3,9 - - 41 22 76 41 WZW 975,0 75 0,0
21.01.2021 00:00:00 8,9 8,3 - - 28 15 46 25 Z 972,5 6 0,0
20.01.2021 23:00:00 8,1 7,3 - - 24 13 57 31 Z 974,7 6 0,0
20.01.2021 22:00:00 9,2 6,2 - - 29 16 55 30 Z 977,0 35 0,0
20.01.2021 21:00:00 9,0 6,5 - - 24 13 52 28 Z 979,1 35 0,0
20.01.2021 20:00:00 9,1 6,4 - - 26 14 55 30 Z 981,0 27 0,0
20.01.2021 19:00:00 8,8 7,6 - - 28 15 48 26 ZZW 982,3 28 0,0
20.01.2021 18:00:00 8,7 7,1 - - 26 14 48 26 ZZW 983,3 15 0,0
20.01.2021 17:00:00 8,8 6,9 - - 26 14 50 27 ZZW 984,0 35 0,0
20.01.2021 16:00:00 9,2 7,0 - - 31 17 55 30 ZZW 984,7 28 0,0
20.01.2021 15:00:00 9,6 7,3 - - 31 17 50 27 ZZW 985,1 40 0,0
20.01.2021 14:00:00 9,3 7,8 - - 34 18 52 28 ZZW 986,0 45 0,0
20.01.2021 13:00:00 9,2 7,7 - - 28 15 55 30 ZZW 987,3 45 0,0
20.01.2021 12:00:00 9,5 8,4 - - 35 19 54 29 ZZW 988,4 4,2 0,0
20.01.2021 11:00:00 9,5 8,3 - - 28 15 - - ZZW 989,1 60 0,0
20.01.2021 10:00:00 9,3 8,2 - - 28 15 52 28 ZZW 989,9 30 0,0
20.01.2021 09:00:00 9,6 8,2 5,7 6,4 34 18 52 28 ZZW 990,3 30 0,0
20.01.2021 08:00:00 9,9 8,4 - - 31 17 52 28 ZZW 990,7 35 0,0
20.01.2021 07:00:00 9,8 8,3 - - 31 17 55 30 ZZW 990,9 40 0,0
20.01.2021 06:00:00 10,0 8,3 - - 34 18 59 32 ZZW 991,4 75 0,0
20.01.2021 05:00:00 9,8 8,5 - - 31 17 52 28 ZZW 991,8 75 0,0
20.01.2021 04:00:00 9,9 8,5 - - 37 20 52 28 ZZW 992,4 65 0,0
20.01.2021 03:00:00 9,9 8,5 - - 35 19 52 28 ZZW 992,9 75 0,0
20.01.2021 02:00:00 9,9 8,6 - - 34 18 54 29 ZZW 993,7 35 0,0
20.01.2021 01:00:00 10,1 8,6 - - 29 16 54 29 ZZW 994,4 - 0,0
20.01.2021 00:00:00 10,0 8,4 - - 34 18 48 26 ZW 995,4 70 0,0
19.01.2021 23:00:00 9,7 8,2 - - 39 21 57 31 ZZW 996,0 10 0,0
19.01.2021 22:00:00 9,6 7,7 - - 34 18 50 27 ZW 996,6 75 0,0
19.01.2021 21:00:00 9,4 7,7 - - 37 20 55 30 ZW 997,6 35 0,0
19.01.2021 20:00:00 9,4 7,7 - - 37 20 54 29 ZW 998,3 35 0,0
19.01.2021 19:00:00 9,7 7,6 - - 35 19 55 30 ZW 998,9 25 0,0
19.01.2021 18:00:00 9,4 7,7 - - 35 19 50 27 ZW 999,9 24 0,0
19.01.2021 17:00:00 9,5 7,2 - - 31 17 50 27 ZW 1000,6 60 0,0
19.01.2021 16:00:00 9,7 7,6 - - 28 15 48 26 ZW 1001,6 50 0,0
19.01.2021 15:00:00 9,6 7,8 - - 35 19 59 32 WZW 1002,3 17 0,0
19.01.2021 14:00:00 10,5 6,9 - - 41 22 68 37 WZW 1002,4 75 0,0
19.01.2021 13:00:00 10,9 8,5 - - 35 19 59 32 ZW 1003,1 75 0,0
19.01.2021 12:00:00 11,5 8,8 - - 34 18 57 31 WZW 1003,8 75 0,0
19.01.2021 11:00:00 11,0 9,0 - - 35 19 55 30 WZW 1004,2 75 0,0
19.01.2021 10:00:00 10,8 9,0 - - 34 18 57 31 WZW 1004,2 75 0,0
19.01.2021 09:00:00 10,5 8,9 4,4 6,4 37 20 55 30 WZW 1004,0 75 0,0
19.01.2021 08:00:00 10,6 9,1 - - 37 20 52 28 WZW 1003,6 75 0,0
19.01.2021 07:00:00 10,4 9,4 - - 34 18 54 29 WZW 1003,3 75 0,0
19.01.2021 06:00:00 10,1 9,4 - - 39 21 54 29 WZW 1003,2 65 0,2
19.01.2021 05:00:00 9,6 9,2 - - 35 19 48 26 ZW 1003,4 14 0,6
19.01.2021 04:00:00 9,0 8,5 - - 31 17 - - ZW 1004,2 3,2 0,8
19.01.2021 03:00:00 8,8 8,3 - - 29 16 52 28 ZW 1005,5 12 0,8
19.01.2021 02:00:00 8,8 8,2 - - 31 17 46 25 ZW 1006,9 30 0,2
19.01.2021 01:00:00 8,1 7,7 - - 28 15 - - ZZW 1008,1 30 0,0
19.01.2021 00:00:00 7,6 7,0 - - 26 14 - - ZZW 1010,3 8 0,0
18.01.2021 23:00:00 7,2 6,5 - - 22 12 - - ZZW 1011,9 8 0,0
18.01.2021 22:00:00 7,3 6,1 - - 24 13 - - ZW 1013,0 25 0,0
18.01.2021 21:00:00 6,6 5,3 - - 21 11 - - ZZW 1014,3 29 0,0
18.01.2021 20:00:00 6,0 4,7 - - 21 11 - - ZZW 1015,3 30 0,0
18.01.2021 19:00:00 5,6 3,9 - - 18 10 - - ZZW 1016,4 35 0,0
18.01.2021 18:00:00 5,2 3,4 - - 15 8 - - ZZW 1017,4 40 0,0
18.01.2021 17:00:00 5,2 3,4 - - 15 8 - - ZW 1018,1 50 0,0
18.01.2021 16:00:00 5,4 3,5 - - 18 10 - - ZW 1018,5 60 0,0
18.01.2021 15:00:00 5,6 3,7 - - 22 12 - - WZW 1019,0 50 0,0
18.01.2021 14:00:00 5,6 3,9 - - 22 12 - - WZW 1019,7 55 0,0
18.01.2021 13:00:00 5,7 3,9 - - 22 12 - - WZW 1020,2 55 0,0
18.01.2021 12:00:00 5,1 3,8 - - 22 12 - - WZW 1021,3 40 0,0
18.01.2021 11:00:00 4,1 3,4 - - 16 9 - - WZW 1021,9 29 0,0
18.01.2021 10:00:00 2,8 2,4 - - 15 8 - - ZW 1022,2 20 0,0
18.01.2021 09:00:00 2,2 1,9 3,7 6,4 13 7 - - ZW 1022,5 10 0,0
18.01.2021 08:00:00 2,1 2,1 - - 15 8 - - ZW 1022,7 9 0,0
18.01.2021 07:00:00 2,1 2,1 - - 18 10 - - WZW 1022,9 4,4 0,0
18.01.2021 06:00:00 1,9 1,8 - - 13 7 - - WZW 1022,7 6 0,0
18.01.2021 05:00:00 1,4 1,1 - - 11 6 - - WZW 1023,1 13 0,0
18.01.2021 04:00:00 1,5 1,0 - - 13 7 - - ZW 1023,4 19 0,0
18.01.2021 03:00:00 1,5 0,9 - - 11 6 - - ZZW 1023,9 23 0,0
18.01.2021 02:00:00 1,6 1,1 - - 11 6 - - ZW 1024,2 25 0,0
18.01.2021 01:00:00 1,2 0,8 - - 13 7 - - WZW 1024,6 21 0,0
18.01.2021 00:00:00 1,5 0,8 - - 8 4 - - ZW 1025,2 22 0,0
17.01.2021 23:00:00 2,4 1,2 - - 9 5 - - ZW 1025,4 30 0,0
17.01.2021 22:00:00 2,8 1,5 - - 15 8 - - WZW 1025,4 30 0,0
17.01.2021 21:00:00 3,2 1,7 - - 15 8 - - W 1025,4 35 0,0
17.01.2021 20:00:00 3,4 1,9 - - 13 7 - - W 1025,5 35 0,0
17.01.2021 19:00:00 4,1 2,0 - - 13 7 - - W 1025,5 35 0,0
17.01.2021 18:00:00 4,6 2,2 - - 15 8 - - W 1025,6 35 0,0
17.01.2021 17:00:00 4,9 2,5 - - 11 6 - - W 1025,1 40 0,0
17.01.2021 16:00:00 5,7 2,7 - - 15 8 - - WNW 1024,7 45 0,0
17.01.2021 15:00:00 6,0 3,0 - - 16 9 - - WNW 1024,0 40 0,0
17.01.2021 14:00:00 6,3 3,1 - - 21 11 - - NW 1023,6 45 0,0
17.01.2021 13:00:00 6,2 3,3 - - 21 11 - - NW 1023,4 45 0,0
17.01.2021 12:00:00 5,8 2,8 - - 22 12 - - WNW 1023,4 55 0,0
17.01.2021 11:00:00 5,3 2,7 - - 21 11 - - WNW 1023,0 50 0,0
17.01.2021 10:00:00 4,4 2,3 - - 22 12 - - WNW 1022,4 60 0,0
17.01.2021 09:00:00 3,3 1,6 3,7 6,5 16 9 - - WNW 1021,6 60 0,0
17.01.2021 08:00:00 3,3 1,7 - - 18 10 - - WNW 1020,5 50 0,0
17.01.2021 07:00:00 3,8 2,0 - - 18 10 - - WNW 1019,8 50 0,0
17.01.2021 06:00:00 4,7 2,2 - - 16 9 - - WNW 1018,8 40 0,0
17.01.2021 05:00:00 4,5 2,1 - - 13 7 - - WNW 1018,3 30 0,0
17.01.2021 04:00:00 4,7 2,2 - - 13 7 - - W 1017,9 30 0,0
17.01.2021 03:00:00 4,9 2,1 - - 15 8 - - WNW 1017,6 30 0,0
17.01.2021 02:00:00 5,0 2,4 - - 13 7 - - W 1017,4 30 0,0
17.01.2021 01:00:00 5,2 2,8 - - 13 7 - - W 1017,4 35 0,0
17.01.2021 00:00:00 5,6 3,7 - - 18 10 - - W 1017,2 35 0,0
16.01.2021 23:00:00 5,8 4,2 - - 11 6 - - W 1016,8 35 0,0
16.01.2021 22:00:00 6,2 4,3 - - 16 9 - - WNW 1016,6 40 0,0
16.01.2021 21:00:00 6,2 4,7 - - 15 8 - - WNW 1016,7 45 0,0
16.01.2021 20:00:00 6,0 4,8 - - 13 7 - - W 1016,5 45 0,0
16.01.2021 19:00:00 5,4 5,4 - - 15 8 - - W 1016,2 30 0,0
16.01.2021 18:00:00 4,3 4,3 - - 11 6 - - W 1015,7 9 0,0
16.01.2021 17:00:00 3,8 3,8 - - 11 6 - - WZW 1015,5 1,2 0,0
16.01.2021 16:00:00 3,8 3,8 - - 11 6 - - W 1015,0 7 0,0
16.01.2021 15:00:00 3,4 3,4 - - 4 2 - - W 1014,7 0,2 0,0
16.01.2021 14:00:00 3,0 3,0 - - 5 3 - - ZW 1014,7 0,2 0,2
16.01.2021 13:00:00 2,9 2,9 - - 9 5 - - Z 1015,1 1,0 0,6
16.01.2021 12:00:00 2,0 2,0 - - 11 6 - - ZZO 1016,4 1,7 2,4
16.01.2021 11:00:00 1,2 1,2 - - 13 7 - - ZZO 1017,3 1,9 3,2
16.01.2021 10:00:00 0,6 0,5 - - 18 10 - - ZZO 1018,2 3,2 2,4
16.01.2021 09:00:00 0,4 0,2 3,7 6,5 16 9 - - ZZO 1019,1 3,3 0,0
16.01.2021 08:00:00 0,2 -0,2 - - 13 7 - - Z 1020,7 3,4 0,0
16.01.2021 07:00:00 0,1 -0,4 - - 15 8 - - Z 1021,9 9 0,0
16.01.2021 06:00:00 0,3 -0,6 - - 15 8 - - Z 1023,5 0,8 0,0
16.01.2021 05:00:00 1,6 -1,6 - - 18 10 - - ZZW 1024,8 50 0,0
16.01.2021 04:00:00 1,4 -1,1 - - 18 10 - - ZZW 1025,3 40 0,0
16.01.2021 03:00:00 1,1 -0,9 - - 13 7 - - Z 1026,1 30 0,0
16.01.2021 02:00:00 0,9 -0,4 - - 11 6 - - Z 1027,2 20 0,0
16.01.2021 01:00:00 0,4 -0,2 - - 8 4 - - Z 1028,2 12 0,0
16.01.2021 00:00:00 0,3 0,2 - - 5 3 - - ZZO 1028,8 8 0,0
15.01.2021 23:00:00 0,3 0,2 - - 5 3 - - Z 1029,6 2,2 0,2
15.01.2021 22:00:00 0,9 0,7 - - 5 3 - - Z 1030,2 4,6 0,0
15.01.2021 21:00:00 1,0 0,8 - - 5 3 - - ZZO 1030,4 4,2 0,0
15.01.2021 20:00:00 1,6 1,2 - - 5 3 - - Z 1030,4 6 0,0
15.01.2021 19:00:00 1,7 1,4 - - 5 3 - - WZW 1030,9 7 0,0
15.01.2021 18:00:00 1,8 1,1 - - 4 2 - - WZW 1030,4 9 0,0
15.01.2021 17:00:00 2,4 1,2 - - 2 1 - - NO 1030,5 19 0,0
15.01.2021 16:00:00 2,8 1,5 - - 2 1 - - NNW 1030,9 16 0,0
15.01.2021 15:00:00 3,0 1,4 - - 2 1 - - WNW 1030,7 18 0,0
15.01.2021 14:00:00 2,7 1,3 - - 4 2 - - NNO 1030,6 18 0,0
15.01.2021 13:00:00 2,3 1,3 - - 8 4 - - N 1030,8 14 0,0
15.01.2021 12:00:00 1,8 1,2 - - 5 3 - - N 1031,3 10 0,0
15.01.2021 11:00:00 1,2 0,9 - - 8 4 - - N 1031,3 6 0,0

tt = temperatuur
td = dauwpunt
tt -20cm = temperatuur -20cm
tt -100cm = temperatuur -100cm
ff = windsnelheid
fx = windstoten
dd = windrichting
ppp = luchtdruk
vv = zicht
rr = neerslag

Weerstations in de omgeving